Regional Weather Roundup
Issued by NWS

Home | Current Version | Previous Version | Graphics & Text | Print | Product List | Glossary On
Versions: 1 2 3 4 5 6 7 8 9 10 11 12 13 14 15 16 17 18 19 20 21 22 23 24 25 26 27 28
000
ASUS45 KCYS 180710
RWRWY

WYOMING REGIONAL WEATHER ROUNDUP
NATIONAL WEATHER SERVICE CHEYENNE WY
100 AM MDT FRI AUG 18 2017

NOTE:  "FAIR" INDICATES FEW OR NO CLOUDS BELOW 12,000 FEET
WITH NO SIGNIFICANT WEATHER AND/OR OBSTRUCTIONS TO VISIBILITY.

WYZ001-180800-
YELLOWSTONE NATIONAL PARK

CITY           SKY/WX    TMP DP  RH WIND       PRES   REMARKS
LK YELLOWSTONE   N/A     41  37  86 NW3       30.37S
W YELLOWSTONE  NOT AVBL

$$
WYZ002>013-054>058-071-098>099-180800-
NORTHERN WYOMING

CITY           SKY/WX    TMP DP  RH WIND       PRES   REMARKS
JACKSON        FAIR     N/A N/A N/A N9        30.29R
CODY           FAIR      62  40  44 SW6       30.18R
GREYBULL       FAIR      61  38  42 SW8       30.07R
WORLAND        FAIR      56  42  59 SW5       30.09R
SHERIDAN       FAIR      61  41  47 CALM      30.08R
BUFFALO        FAIR      61  35  37 W8        30.14R
GILLETTE       FAIR      62  44  51 SW10      30.09R
HULETT         FAIR      59  45  58 SW9       30.08S
NEWCASTLE      FAIR      54  43  66 N7        30.10F

$$
WYZ014>020-022>026-101>103-180800-
CENTRAL WYOMING

CITY           SKY/WX    TMP DP  RH WIND       PRES   REMARKS
BIG PINEY      FAIR      46  32  58 NE7       30.32S
PINEDALE       FAIR      43  34  70 NW5       30.33S
DUBOIS         FAIR      50  32  50 NW14      30.31R
LANDER           N/A    N/A N/A N/A MISG      30.19R
RIVERTON       FAIR      62  40  44 E6        30.20R
CASPER         FAIR      52  44  74 NW3       30.17S
DOUGLAS        FAIR      56  48  74 CALM      30.16S

$$
WYZ021-027>030-104>119-180800-
SOUTHERN WYOMING

CITY           SKY/WX    TMP DP  RH WIND       PRES   REMARKS
EVANSTON       FAIR      58  34  40 S7        30.33S
KEMMERER         N/A     52  32  46 NW9       30.34S
FORT BRIDGER   FAIR      62  32  32 W9        30.35S
ROCK SPRINGS   FAIR      59  30  33 NW6       30.29S
RAWLINS        FAIR      57  32  38 W10       30.26R
SARATOGA       FAIR      54  39  58 CALM      30.28S
LARAMIE        FAIR      54  38  54 W6        30.26R
CHEYENNE       FAIR      55  45  68 NW5       30.22R
TORRINGTON     FAIR      59  50  72 NW3       30.10F
PINE BLUFFS    FAIR      52  46  82 NW3       30.16S

$$




USA.gov is the U.S. government's official web portal to all federal, state and local government web resources and services.